Location: Malvern Link
(52.1333°N, 2.3000°W)
Time: 18:56:43
(UTC+00:00)

Cosmos 2082 Rocket - Pass Details

Date: 18 September 2020
Orbit: 834 x 852 km, 71.0° (Epoch: 21 October)

Event Time Altitude Azimuth Distance (km) Brightness Sun altitude
Rises 20:37:15 0° 330° (NNW) 3,395 6.4 -21.3°
Reaches altitude 10° 20:39:56 10° 339° (NNW) 2,457 5.4 -21.6°
Maximum altitude 20:45:02 34° 44° (NE) 1,348 3.1 -22.3°
Enters shadow 20:46:14 31° 69° (ENE) 1,430 3.1 -22.4°
